Location: Paderno d�Adda
(45.6667°N, 9.4333°E)
Time: 00:36:33
(UTC+00:00)

CREW DRAGON DEMO-1 DEB - Pass Details

Date: 19 September 2020
Orbit: 361 x 363 km, 51.6° (Epoch: 26 October)

Event Time Altitude Azimuth Distance (km) Brightness Sun altitude
Rises 19:04:29 0° 295° (WNW) 2,199 8.4 -17.8°
Reaches altitude 10° 19:06:41 10° 308° (NW) 1,353 6.8 -18.2°
Maximum altitude 19:09:22 28° 10° (N) 720 4.3 -18.6°
Enters shadow 19:09:41 27° 23° (NNE) 734 4.2 -18.6°
